Regional Weather Roundup
Issued by NWS

Home | Current Version | Previous Version | Text Only | Print | Product List | Glossary Off
Versions: 1 2 3 4 5 6 7 8 9 10 11 12 13 14 15 16 17 18 19 20 21 22 23 24 25 26 27 28

000
ASUS45 KCYS 222010
RWRWY

WYOMING REGIONAL WEATHER ROUNDUP
NATIONAL WEATHER SERVICE CHEYENNE WY
200 PM MDT SUN OCT 22 2017

NOTE:  "FAIR" INDICATES FEW OR NO CLOUDS BELOW 12,000 FEET
WITH NO SIGNIFICANT WEATHER AND/OR OBSTRUCTIONS TO VISIBILITY.

WYZ001-222100-
YELLOWSTONE NATIONAL PARK

CITY           SKY/WX    TMP DP  RH WIND       PRES   REMARKS
LK YELLOWSTONE   N/A     35  33  92 W12G24    30.19R WCI  27
W YELLOWSTONE  NOT AVBL

$$
WYZ002>013-054>058-071-098>099-222100-
NORTHERN WYOMING

CITY           SKY/WX    TMP DP  RH WIND       PRES   REMARKS
JACKSON        CLOUDY    47  32  56 SW22G33   30.24F
CODY           FAIR      57  33  40 W13G28    30.00S
GREYBULL       FAIR      60  27  28 S7        29.98S
WORLAND        FAIR      55  30  38 CALM      29.99F
SHERIDAN       FAIR      65  29  25 W26G32    29.86F
BUFFALO        FAIR      63  25  23 SE8       29.90F
GILLETTE       FAIR      63  28  26 SW25G31   29.90F
HULETT         FAIR      63  28  27 SW17G26   29.88F
NEWCASTLE      FAIR      59  25  27 SE5       29.95F

$$
WYZ014>020-022>026-101>103-222100-
CENTRAL WYOMING

CITY           SKY/WX    TMP DP  RH WIND       PRES   REMARKS
BIG PINEY      PTSUNNY   52  26  36 VRB5      30.28F
PINEDALE       CLOUDY    48  27  43 NW21G29   30.30R
DUBOIS         DRIZZLE   43  30  61 NW15G25   30.18S
LANDER         FAIR      61  28  28 E7        30.06F
RIVERTON       FAIR      58  27  30 SE6       30.06F
CASPER         FAIR      60  26  27 SW32G40   30.06F
DOUGLAS        FAIR      62  27  26 W26G39    30.03R

$$
WYZ021-027>030-104>119-222100-
SOUTHERN WYOMING

CITY           SKY/WX    TMP DP  RH WIND       PRES   REMARKS
EVANSTON       FAIR      56  30  37 SW25G39   30.35F
KEMMERER       FAIR      52  27  37 W24G35    30.33S
FORT BRIDGER   FAIR      58  29  32 W18G32    30.36S
ROCK SPRINGS   FAIR      56  26  31 W33G44    30.27F
DIXON          FAIR      54  25  33 SW17      30.36F
RAWLINS        FAIR      53  26  35 SW26G45   30.23F
SARATOGA       FAIR      52  27  37 SW16G31   30.30S
LARAMIE        FAIR      54  19  25 SW29G35   30.18F
CHEYENNE       FAIR      64  21  19 W37G46    30.11F
TORRINGTON     FAIR      66  26  22 W30G40    30.01F
PINE BLUFFS    FAIR      66  25  20 W23       30.08F

$$




USA.gov is the U.S. government's official web portal to all federal, state and local government web resources and services.